Regional Weather Roundup
Issued by NWS Kansas City/Pleasant Hill, MO

Home | Current Version | Previous Version | Graphics & Text | Print | Product List | Glossary Off
Versions: 1 2 3 4 5 6 7 8 9 10 11 12 13 14 15 16 17 18 19 20 21 22 23 24 25 26 27 28 29 30 31 32 33 34 35 36 37 38 39 40 41 42 43 44 45 46 47 48 49 50

000
ASUS43 KEAX 141210
RWREAX

WEATHER ROUNDUP FOR EASTERN KANSAS AND NORTHWEST MISSOURI
NATIONAL WEATHER SERVICE KANSAS CITY/PLEASANT HILL MO
600 AM CST SUN FEB 14 2016

KSZ040-057-103>105-MOZ028-029-037-043-141300-
...KANSAS CITY METROPOLITAN AREA...

CITY           SKY/WX    TMP DP  RH WIND       PRES   REMARKS
K.C. INTL      CLOUDY    25   8  48 SE13      30.00F WCI  14
6HR MIN TEMP:  21; 6HR MAX TEMP:  25;

K.C. DOWNTOWN  CLOUDY    28   8  43 SE6       30.04F WCI  22
6HR MIN TEMP:  24; 6HR MAX TEMP:  28;

LEES SUMMIT    CLOUDY    26  15  63 SE8       30.04S WCI  18
6HR MIN TEMP:  23; 6HR MAX TEMP:  26; 6HR PCP: TRACE;

OLATHE - IXD   CLOUDY    26  19  74 SE8       30.03S WCI  18
6HR MIN TEMP:  22; 6HR MAX TEMP:  26; 6HR PCP:  0.02;

OLATHE - OJC   CLOUDY    25  18  74 SE7       30.02F WCI  17
6HR MIN TEMP:  22; 6HR MAX TEMP:  25; 6HR PCP:  0.01;

LAWRENCE       CLOUDY    26  11  52 SE5       30.04F WCI  20

$$

MOZ001>008-011>017-020>025-030>033-038>040-044>046-053-054-141300-
...NORTHERN AND CENTRAL MISSOURI...

CITY           SKY/WX    TMP DP  RH WIND       PRES   REMARKS
ST. JOSEPH     PTCLDY    25   7  46 SE9       30.03F WCI  15
6HR MIN TEMP:  21; 6HR MAX TEMP:  25;

MOSBY          CLOUDY    28   7  40 SE8       30.05F WCI  20
WARRENSBURG    LGT SNOW  23  21  93 SE9       30.06S WCI  13
WHITEMAN AFB   LGT SNOW  23  20  91 SE10      30.05R FOG     WCI  12
6HR MIN TEMP:  23; 6HR MAX TEMP:  28; 6HR PCP:  0.05;

CLINTON        MIX PCPN  30  25  80 S14       30.07F WCI  20
SEDALIA        SNOW      23  19  85 SE14      30.07F VSB 1/2 WCI  11
6HR MIN TEMP:  24; 6HR MAX TEMP:  28; 6HR PCP: TRACE;

WARSAW         NOT AVBL
CHILLICOTHE      N/A     24   7  48 SE9       30.09F WCI  14
6HR MIN TEMP:  22; 6HR MAX TEMP:  24;

KIRKSVILLE     FLURRIES  20   9  62 SE17      30.09F WCI   5
6HR MIN TEMP:  19; 6HR MAX TEMP:  20; 6HR PCP: TRACE;


$$

MOZ041-047>049-056>058-063>065-088>090-097-141300-
...EASTERN AND SOUTHERN MISSOURI...

CITY           SKY/WX    TMP DP  RH WIND       PRES   REMARKS
ST. LOUIS INTL CLOUDY    24   9  52 SE15      30.23F WCI  11
6HR MIN TEMP:  24; 6HR MAX TEMP:  24;

SPIRIT OF STL  CLOUDY    23   8  52 SE10G21   30.21F WCI  12
COLUMBIA       CLOUDY    24   8  50 SE16G23   30.10F WCI  11
JEFFERSON CITY CLOUDY    25   9  50 SE17      30.12F WCI  12
ROLLA          FRZ RAIN  22  15  75 SE15      30.09F WCI   9
OSAGE BEACH    CLOUDY    25  18  74 CALM      30.09F
SPRINGFIELD    CLOUDY    27   9  46 SE21      30.00F WCI  13
BRANSON        CLOUDY    28   9  43 SE12G17   30.05F WCI  18
JOPLIN         CLOUDY    35  16  45 VRB5      30.03R WCI  31
WEST PLAINS    CLOUDY    24  17  74 SE15G25   30.14F WCI  11

$$

IAZ060-094-KSZ022-034>040-054-083-096-NEZ052-066-093-141300-
...KANSAS...SOUTHEAST NEBRASKA AND IOWA...

CITY           SKY/WX    TMP DP  RH WIND       PRES   REMARKS
TOPEKA         CLEAR     23   7  50 S3        30.03F
6HR MIN TEMP:  22; 6HR MAX TEMP:  26;

MANHATTAN      CLEAR     16   9  74 CALM      30.00F
EMPORIA        PTCLDY    22  10  60 NW7       30.02R WCI  13
CHANUTE        CLOUDY    34  15  46 E7        30.00F WCI  28
WICHITA        CLOUDY    27  12  53 N10       30.01R WCI  17
OMAHA          CLOUDY    22   8  55 S16       29.95F WCI   8
LINCOLN        CLOUDY    21  10  62 S14       29.93F WCI   8
FALLS CITY     CLOUDY    24   7  48 S10       30.00F WCI  14
LAMONI         SNOW      17  14  88 SE12      30.02F VSB 1/2 WCI   4
DES MOINES     SNOW      17  10  74 SE13      30.05F VSB 1/2 WCI   4

$$




USA.gov is the U.S. government's official web portal to all federal, state and local government web resources and services.